22.2.2020 Tornio Ralli

Tulokset  Keskeyttäneet (52)  AT-pisteet (7)  Tilastot Lähtöön oikeutettujen lista CSV


 << EK1 EK3 >> Yleiskilpailun tulos
Tornio Ralli
22.2.2020
EK 2, LUOKKATULOKSET
Lisäluokat
Tornion Ralliharrastajat
Elijärvi
 
Luokka 2 , Historic gr2,4, a yli 1350 60-90 vm. 2wd , Lähti:7
EK2, 8.61km, nopein: 85.2km/h
SijNroNimiTulosEro
1117Esa Huovinen6:03,6
2113Jani Ahola6:09,05,4
3114Jarmo Holtinkoski6:14,510,9
4116samuli mustonen6:23,419,8
5119jouni kumpulainen6:23,820,2
6118Jesse Aho6:24,120,5
7115Jari Lukkarila6:54,751,1
Tulos EK 2 jälkeen
SijNroNimiTulosEro
1117Esa Huovinen7:53,3
2113Jani Ahola7:58,5 5,2
3114Jarmo Holtinkoski8:09,9 16,6
4119jouni kumpulainen8:18,2 24,9
5116samuli mustonen8:29,2 35,9
6118Jesse Aho8:37,7 44,4
7115Jari Lukkarila8:58,4 1:05,1

 
Luokka 10 , Naiset cc vapaa 2wd , Lähti:3
EK2, 8.61km, nopein: 80.9km/h
SijNroNimiTulosEro
136Sara Vainikainen6:23,0
238Katja Kehus6:53,230,2
337Marika Laukkanen7:01,738,7
Tulos EK 2 jälkeen
SijNroNimiTulosEro
136Sara Vainikainen8:20,9
238Katja Kehus8:48,3 27,4
337Marika Laukkanen9:02,0 41,1

 
Luokka 14 , F, A, HR alle 1650 2wd Nuotti , Lähti:4
EK2, 8.61km, nopein: 91.5km/h
SijNroNimiTulosEro
170Benjamin Korhola €5:38,8
273Patrik Goman5:57,318,5
372Jonne Ollikainen6:10,832,0
471Mielityinen Eemil6:30,351,5
Tulos EK 2 jälkeen
SijNroNimiTulosEro
170Benjamin Korhola €7:26,2
273Patrik Goman7:43,4 17,2
372Jonne Ollikainen8:00,2 34,0
471Mielityinen Eemil8:18,0 51,8

 
Luokka 18 , VW aircooled 2wd , Lähti:0
 
Luokka 19 , Lada orginal 2wd , Lähti:2
EK2, 8.61km, nopein: 78.2km/h
SijNroNimiTulosEro
1107Ari Koskinen6:36,6
2106Ari Anttonen6:39,32,7
Tulos EK 2 jälkeen
SijNroNimiTulosEro
1107Ari Koskinen8:34,9
2106Ari Anttonen8:58,8 23,9

 
Luokka 21 , Aloittelijoiden luokka (max. 5 kilpailua) , Lähti:15
EK2, 8.61km, nopein: 83.2km/h
SijNroNimiTulosEro
1192Jari Sysimetsä6:12,7
2188Mikko Kaarlela6:23,310,6
3190Matti Löytynoja6:26,714,0
4195Henry Kehus6:27,214,5
5199Aleksi Kehus6:28,716,0
6189Tuomas Junes6:35,622,9
7197Ari Kivelä6:36,023,3
8194Kimmo Pakonen6:37,624,9
9200Juha Niiranen6:38,325,6
10193Petri Kinnunen6:38,926,2
11198Eerikki Salmela6:40,227,5
12203Eero Lammi6:57,144,4
13191Kimmo Liljamaa7:01,348,6
14196Niko Mettovaara7:10,557,8
15201Teijo Heikkinen7:46,81:34,1
Tulos EK 2 jälkeen
SijNroNimiTulosEro
1192Jari Sysimetsä8:09,1
2188Mikko Kaarlela8:15,2 6,1
3190Matti Löytynoja8:26,5 17,4
4195Henry Kehus8:27,0 17,9
5199Aleksi Kehus8:29,4 20,3
6197Ari Kivelä8:34,5 25,4
7198Eerikki Salmela8:36,7 27,6
8200Juha Niiranen8:37,8 28,7
9193Petri Kinnunen8:39,6 30,5
10189Tuomas Junes8:40,2 31,1
11194Kimmo Pakonen8:59,0 49,9
12203Eero Lammi9:09,0 59,9
13196Niko Mettovaara9:11,6 1:02,5
14191Kimmo Liljamaa9:49,1 1:40,0
15201Teijo Heikkinen9:52,7 1:43,6